Location: Newark
(23.6997°S, 137.8000°E)
Time: 16:59:13
(UTC+00:00)

LightSail 2 - Visible Passes

Search period start: 05 December 2019 00:00
Search period end: 15 December 2019 00:00
Orbit: 695 x 731 km, 24.0° (Epoch: 05 December)

Date Brightness Start Highest point End Pass type
(mag) Time Alt. Az. Time Alt. Az. Time Alt. Az.
05 Dec 5.5 18:06:01 44° N 18:06:38 47° NNE 18:11:35 10° E visible
06 Dec 7.1 17:11:24 21° ENE 17:11:24 21° ENE 17:13:20 10° E visible
06 Dec 5.1 18:50:21 19° WNW 18:54:01 77° N 18:59:12 10° E visible
07 Dec 5.0 17:55:43 64° N 17:55:59 66° NNE 18:01:05 10° E visible
08 Dec 7.1 17:01:05 22° E 17:01:05 22° E 17:02:56 10° E visible
08 Dec 5.1 18:40:02 22° W 18:43:25 90° SW 18:48:36 10° E visible
09 Dec 5.0 17:45:25 82° NNE 17:45:25 82° NNE 17:50:29 10° E visible
09 Dec 5.2 19:25:48 10° W 19:30:56 88° S 19:36:06 10° E visible
10 Dec 7.3 16:50:51 20° E 16:50:51 20° E 16:52:22 10° E visible
10 Dec 5.1 18:29:48 25° W 18:32:50 86° S 18:37:58 10° E visible
11 Dec 5.2 17:35:16 72° E 17:35:16 72° E 17:39:51 10° E visible
11 Dec 5.1 19:15:12 10° W 19:20:18 81° N 19:25:27 10° ENE visible
12 Dec 7.6 16:40:47 15° E 16:40:47 15° E 16:41:44 10° E visible
12 Dec 5.0 18:19:45 31° W 18:22:12 89° N 18:27:20 10° E visible
13 Dec 5.7 17:25:23 51° E 17:25:23 51° E 17:29:12 10° E visible
13 Dec 5.2 19:04:34 10° W 19:09:36 64° NNW 19:14:40 10° ENE visible
14 Dec 5.0 18:10:07 47° W 18:11:32 75° N 18:16:37 10° ENE visible
